Flag for Brazil Weather past 2 weeks in Campinas, São Paulo, Brazil

Now
84 °F

Scattered clouds.


Feels Like: 87 °F
Forecast: 69 / 84 °F
Wind: 12 mph from South

Location: Campinas Aeroporto

Current Time: Jan 31, 2015 at 5:59:03 PM

Latest Report: Jan 31, 2015 at 5:00 PM


Visibility: N/A

Pressure: 30.04 "Hg

Humidity: 58%

Dew point: 68 °F

Location of CampinasLocation

Historic Weather in Campinas — Graph

°F

Campinas temperature yesterday

Maximum temperature yesterday: 86 °F (at 4:00 PM)
Minimum temperature yesterday: 70 °F (at 4:00 AM)
Average temperature yesterday: 77 °F

Past Weeks' High & Low Weather Summary

 TemperatureHumidityPressure
High99 °F (Jan 19, 5:00 PM)100% (Jan 21, 3:00 AM)30.12 "Hg (Jan 21, 3:00 AM)
Low41 °F (Jan 21, 10:00 PM)22% (Jan 19, 5:00 PM)29.86 "Hg (Jan 20, 6:00 PM)
Average78 °F65%30.02 "Hg
* Reported Jan 16 4:00 PM — Jan 31 4:00 PM, Campinas, Weather by CustomWeather, © 2014

Note: Actual official high and low records may vary slightly from our data, if they occured in-between our weather recording intervals... More about our weather records

Advertising

Campinas weather history for previous 24 hours

 ConditionsComfort  
Time TempWeatherWind HumidityBarometerVisibility
4:00 PM
Jan 31
86 °FScattered clouds.12 mph52%30.04 "HgN/A
3:00 PM84 °FPartly sunny.8 mph55%30.07 "HgN/A
2:00 PM84 °FWarm.12 mph58%30.09 "HgN/A
1:00 PM82 °FPassing clouds.13 mph62%30.12 "HgN/A
12:00 PM81 °FPassing clouds.14 mph62%30.12 "HgN/A
11:00 AM79 °FPassing clouds.13 mph65%30.12 "HgN/A
10:00 AM77 °FPassing clouds.15 mph69%30.12 "HgN/A
9:00 AM73 °FPassing clouds.15 mph78%30.12 "HgN/A
8:00 AM72 °FPassing clouds.13 mph78%30.09 "HgN/A
7:00 AM68 °FScattered clouds.13 mph88%30.09 "HgN/A
6:00 AM68 °FPassing clouds.13 mph83%30.04 "HgN/A
5:00 AM68 °FClear.16 mph83%30.04 "Hg10 mi
4:00 AM70 °FPassing clouds.16 mph78%30.07 "HgN/A
3:00 AM70 °FPassing clouds.18 mph83%30.07 "HgN/A
2:00 AM72 °FPassing clouds.17 mph78%30.07 "HgN/A
1:00 AM72 °FClear.15 mph83%30.07 "Hg10 mi
12:00 AM73 °FClear.17 mph78%30.09 "Hg10 mi
11:00 PM
Jan 30
73 °FClear.15 mph78%30.09 "Hg10 mi
10:00 PM75 °FClear.16 mph74%30.07 "HgN/A
9:00 PM75 °FPassing clouds.14 mph74%30.07 "HgN/A
8:00 PM75 °FThunderstorms. Passing clouds.8 mph74%30.04 "HgN/A
7:00 PM79 °FThunderstorms. Passing clouds.13 mph65%30.01 "HgN/A
6:00 PM82 °FScattered showers. Passing clouds.16 mph55%30.01 "HgN/A
5:00 PM82 °FScattered showers. Scattered clouds.20 mph58%30.01 "HgN/A
Weather by CustomWeather, © 2014

See weather overviewHow to use our weather pages